COSMOS 2251 DEB, 33836

Orbit data source: Space-Track

COSMOS 2251 DEB, 33836 is space debris in LEO originally from a launch on Wed, 16 Jun 1993 UTC launched from the Plesetsk Missile And Space Complex (PKMTR). The debris from Iridium 33, an American commercial communications satellite, has been tracked extensively since its accidental collision with the defunct Russian satellite Cosmos 2251 in 2009. This event, occurring at high speed in low Earth orbit (LEO), generated thousands of pieces of space debris, significantly increasing the risk of further collisions. The Iridium 33 debris cloud has impacted space traffic management and orbital debris mitigation strategies, making it a subject of ongoing study in space situational awareness.

Loading next visibility...
Identifier
33836, 1993-036CD
Orbit
LEO
Country
Flag of CISCIS
Related business
Manufacturer
Unknown
Mission
Spacecraft
Bus & Motor
Unknown
Mass
Unknown
Launch date (UTC)
1993-06-16 (33 years ago)
Launch vehicle
Unknown
Launch site
Plesetsk Missile And Space Complex (PKMTR)
Object type
Payload
Rocket body
Debris
Shape & HBR
Unknown shape, 0.2 m
Radar Cross Section
Small (<0.1 m²)

Expand to show TLE details & history
Last TLE update: 10 hours ago

TLE from 10 hours ago
0 COSMOS 2251 DEB
1 33836U 93036CD  25355.03157816  .00005278  00000-0  70287-3 0  9994
2 33836  73.9968 242.5875 0022728  92.5688 331.0689 14.79748232642110
Epoch: 2025-12-21T00:45Z
TLE epoch observation values (Epoch: 2025-12-21T00:45:28.353Z)
Latitude
59.46293°
Longitude
170.28642°
Altitude
625.925 km
Speed
7.559 km/s
True Right ascension
18h 06m 01s
True Declination
59° 18' 34"
Sunlit
Object was in daylight at epoch
Visualization orbit readout
Latitude
Unknown
Longitude
Unknown
Altitude
Unknown
Speed
Unknown
Apparent Right ascension
Unknown
Apparent Declination
Unknown
Sunlit
N/A
Visualization observer readout
Local Sidereal Time
09:29:51
Azimuth
Unknown
Elevation
Unknown
Doppler factor
Unknown
Orbital elements
Apogee altitude
643.621 km
Perigee altitude
611.775 km
Semi-major axis
7,005.835 km
Eccentricity
0.00227
Inclination
73.9968°
RAAN
242.5875°
Arg. of periapsis
92.5688°
True anomaly
330.94259°
Mean anomaly
331.0689°
Eccentric anomaly
331.00578°
Mean motion
3.70129 °/min
Orbital period
97.26 mins
BSTAR
0.00070287
Loading maneuver chart data...
Computing Atmospheric mass density...
Loading historical data...
Loading historical data...
Loading historical data...
Loading historical data...
Loading historical data...
Loading historical data...
Loading historical data...

Documentation

Showing up to 5 results
|